This demonstration page uses our WeatherBlox Daily Observations layout. Learn more.

Left ArrowRight Arrow

Hourly Observations for July 18, 2017

Temp ( °F °C ) Dew Point ( °F °C ) Humidity (%) Winds ( mph kmh ) Pressure ( in mb ) Visibility ( mi km ) Precip ( " mm )
12:53 am 00:53 Partly Cloudy 78 25.6 66 18.9 67 67 ESE 9 15 29.88 1012 10 16 0.00 0.00
1:53 am 01:53 Clear 77 25 67 19.4 71 71 SE 9 15 29.87 1012 10 16 0.00 0.00
2:53 am 02:53 Clear 76 24.4 67 19.4 74 74 SE 7 11 29.86 1011 10 16 0.00 0.00
3:53 am 03:53 Clear 75 23.9 66 18.9 74 74 SE 8 13 29.86 1011 10 16 0.00 0.00
5:53 am 05:53 Clear 73 22.8 66 18.9 79 79 ESE 8 13 29.87 1012 10 16 0.00 0.00
6:53 am 06:53 Partly Cloudy 72 22.2 66 18.9 82 82 ESE 8 13 29.89 1012 10 16 0.00 0.00
7:53 am 07:53 Partly Cloudy 74 23.3 68 20 82 82 ESE 7 11 29.90 1013 10 16 0.00 0.00
8:53 am 08:53 Mostly Sunny 77 25 68 20 74 74 SE 12 19 29.93 1013 10 16 0.00 0.00
9:53 am 09:53 Sunny 80 26.7 67 19.4 64 64 SE 12 19 29.94 1014 10 16 0.00 0.00
10:53 am 10:53 Sunny 83 28.3 66 18.9 57 57 SE 14 22 29.94 1014 10 16 0.00 0.00
11:53 am 11:53 Sunny 87 30.6 64 17.8 46 46 SE 9 15 29.93 1014 10 16 0.00 0.00
12:53 pm 12:53 Sunny 90 32.2 62 16.7 39 39 SE 12 19 29.93 1013 10 16 0.00 0.00
1:53 pm 13:53 Sunny 93 33.9 61 16.1 34 34 SE 14 22 29.90 1012 10 16 0.00 0.00
2:53 pm 14:53 Mostly Sunny 95 35 59 15 30 30 ESE 12 19 29.86 1011 10 16 0.00 0.00
3:53 pm 15:53 Mostly Sunny 95 35 57 13.9 28 28 ESE 10 17 29.85 1011 10 16 0.00 0.00
4:53 pm 16:53 Sunny 95 35 57 13.9 28 28 ESE 16 26 29.83 1010 10 16 0.00 0.00
5:53 pm 17:53 Mostly Sunny 96 35.6 58 14.4 28 28 E 13 20 29.83 1010 10 16 0.00 0.00
6:53 pm 18:53 Sunny 95 35 56 13.3 27 27 SE 18 30 29.83 1010 10 16 0.00 0.00
7:53 pm 19:53 Sunny 93 33.9 58 14.4 31 31 SE 21 33 29.84 1011 10 16 0.00 0.00
8:53 pm 20:53 Sunny 90 32.2 59 15 35 35 SE 15 24 29.87 1012 10 16 0.00 0.00
9:53 pm 21:53 Clear 87 30.6 59 15 39 39 SSE 15 24 29.90 1013 10 16 0.00 0.00
10:53 pm 22:53 Clear 85 29.4 63 17.2 48 48 SSE 15 24 29.93 1014 10 16 0.00 0.00
11:53 pm 23:53 Clear 83 28.3 64 17.8 53 53 SSE 14 22 29.95 1014 10 16 0.00 0.00

Powered by AerisWeather